Location: Unspecified
(0.0000°N, 0.0000°E)
Time: 11:15:16
(UTC+00:00)

deb Explorer IX - Pass Details

Date: 19 November 2019
Orbit: 546 x 1104 km, 38.8° (Epoch: 14 December)

Event Time Altitude Azimuth Distance (km) Brightness Sun altitude
Rises 07:39:32 0° 344° (NNW) 2,776 ? 26.8°
Reaches altitude 10° 07:43:31 10° 21° (NNE) 1,818 ? 27.7°
Maximum altitude 07:44:42 11° 38° (NE) 1,742 ? 28.0°
Drops below altitude 10° 07:45:53 10° 55° (NE) 1,802 ? 28.3°
Sets 07:49:45 0° 92° (E) 2,701 ? 29.2°
